NOAA NWS Hourly Roundups by Site

Regional Weather Roundup for Phoenix, AZ

To Select Another Site Choose from List

Select Site:  

000
ASUS45 KPSR 180410
RWRAZ

ARIZONA HOURLY REGIONAL WEATHER ROUNDUP
NATIONAL WEATHER SERVICE PHOENIX AZ
900 PM MST SAT AUG 17 2019

NOTE: FAIR INDICATES FEW OR NO CLOUDS BELOW 12,000 FEET WITH NO
SIGNIFICANT WEATHER AND/OR OBSTRUCTIONS TO VISIBILITY.

AZZ001>003-036-180500-
NORTHWEST ARIZONA

CITY           SKY/WX    TMP DP  RH WIND       PRES   REMARKS
BULLHEAD CITY  CLEAR    102  30   8 SE13      29.65
KINGMAN        CLEAR     84  29  13 S10       29.91R
$$

AZZ004>008-015-016-018-180500-
NORTH CENTRAL ARIZONA

CITY           SKY/WX    TMP DP  RH WIND       PRES   REMARKS
GRAND CANYON   CLEAR     61  22  22 CALM      30.17R
WILLIAMS       PTCLDY    70  34  26 SW9       30.19
PRESCOTT       CLEAR     76  42  29 S7        30.07R
FLAGSTAFF      CLEAR     64  33  31 SW5       30.22R
PAYSON         CLEAR     77  34  20 CALM      30.09
PAGE           CLEAR     89  22   8 SW3       29.90R
$$

AZZ009>014-017-180500-
NORTHEAST ARIZONA

CITY           SKY/WX    TMP DP  RH WIND       PRES   REMARKS
WINSLOW        NOT AVBL
SAINT JOHNS    CLEAR     76  34  21 SW13      30.08R
WINDOW ROCK    CLEAR     63  25  23 CALM      30.15R
SHOW LOW       CLEAR     70  36  28 S8        30.18R
$$

AZZ540-542>544-546-548-180500-
GREATER PHOENIX AREA

CITY           SKY/WX    TMP DP  RH WIND       PRES   REMARKS
PHOENIX        PTCLDY   103  45  14 W13       29.71R
BUCKEYE          N/A     93  48  21 SW8       29.73
LUKE AFB       PTCLDY    96  43  15 SW8       29.71R
DEER VALLEY      N/A    N/A N/A N/A MISG      29.75R
SCOTTSDALE     PTCLDY    99  46  16 CALM      29.76R
MESA-FALCON    PTCLDY    99  49  18 CALM      29.74R
MESA-GATEWAY   PTCLDY    99  48  18 NW7       29.75R
CHANDLER       MOCLDY   100  50  18 W8        29.73R
$$

AZZ539-553-180500-
SOUTHWEST MARICOPA COUNTY AND PINAL COUNTY

CITY           SKY/WX    TMP DP  RH WIND       PRES   REMARKS
CASA GRANDE    MOCLDY    96  45  17 W10       29.77R
GILA BEND      FAIR      96  34  11 S12       29.71R
$$

AZZ503-504-507>509-180500-
SOUTHEAST ARIZONA

CITY           SKY/WX    TMP DP  RH WIND       PRES   REMARKS
TUCSON         PTCLDY    91  48  22 NW5       29.89R
DAVIS-MONTHAN  MOCLDY    90  50  25 W5        29.88
NOGALES        PTCLDY    80  58  46 SE6       30.01R
SIERRA VISTA   MOCLDY    82  54  36 SW8       30.07R
DOUGLAS        MOCLDY    80  41  24 W5        30.01R
SAFFORD        CLEAR     85  39  19 W8        29.89R
$$

AZZ532-180500-
SOUTHWEST ARIZONA

CITY           SKY/WX    TMP DP  RH WIND       PRES   REMARKS
YUMA           CLEAR     93  44  18 S13       29.68R
$$

CAZ041-043-047-048-061-525>527-560>570-180500-
SOUTHERN CALIFORNIA

CITY           SKY/WX    TMP DP  RH WIND       PRES   REMARKS
DOWNTOWN L.A.  NOT AVBL
L.A. AIRPORT   MOCLDY    66  59  78 W10       29.87R
SAN DIEGO      MOCLDY    68  60  75 W7        29.89R
BURBANK        CLEAR     66  59  78 S7        29.86R
ONTARIO        PTCLDY    69  59  70 SW10      29.86R
RIVERSIDE      CLEAR     69  58  67 W6        29.86R
PALM SPRINGS   PTCLDY    93  49  22 NW20G25   29.69R
EL CENTRO NAS  PTCLDY    93  37  14 W21       29.67R
IMPERIAL       PTCLDY    91  42  18 W12       29.65R
BLYTHE         MOCLDY    98  21   6 SW7       29.66R
NEEDLES        CLEAR    101  26   7 S9        29.68R
$$

NVZ020-UTZ003-180500-
SOUTHERN NEVADA-UTAH

CITY           SKY/WX    TMP DP  RH WIND       PRES   REMARKS
LAS VEGAS      PTCLDY    96  16   5 S6        29.73R
SALT LAKE CITY CLEAR     79  37  22 S7        29.86R
$$

NMZ009-TXZ055-180500-
NEW MEXICO-WEST TEXAS

CITY           SKY/WX    TMP DP  RH WIND       PRES   REMARKS
ALBUQUERQUE    PTCLDY    81  37  20 E3        30.02R
EL PASO        MOCLDY    94  43  17 W14       29.92R
$$


........................KEY........................
SKY/WX - SKY CONDITION/WEATHER
TMP    - TEMPERATURE IN FAHRENHEIT
DP     - DEW POINT IN FAHRENHEIT
RH     - RELATIVE HUMIDITY IN PERCENT
WIND   - DIRECTION AND SPEED IN MILES PER HOUR (MPH)
VRB    - VARIABLE WIND DIRECTION
PRES   - MEAN SEA LEVEL PRESSURE IN INCHES OF MERCURY
         F - FALLING PRESSURE   R - RISING PRESSURE
         S - STEADY PRESSURE
VSB    - VISIBILITY IN MILES
HX     - HEAT INDEX IN FAHRENHEIT
WCI    - WIND CHILL INDEX IN FAHRENHEIT
TC     - TEMPERATURE IN CELSIUS WHICH IS ALSO KNOWN AS
         TEMPERATURE IN CENTIGRADE
AFB    - AIR FORCE BASE
         LUKE AFB IS LUKE AIR FORCE BASE
         DAVIS-MONTHAN IS DAVIS-MONTHAN AIR FORCE BASE
NAS    - NAVAL AIR STATION
         EL CENTRO NAS IS EL CENTRO NAVAL AIR STATION
N/A    - NOT AVAILABLE



 

View Past Reports for Phoenix, AZ.

Products Courtesy of NOAA-NWS
NWS Information Parsing Script by Ken True at Saratoga Weather - Script by SE Lincoln Weather.